Location: Cactus School
(34.5700°N, 118.0931°W)
Time: 22:20:02
(UTC-07:00)

Transit 4A - Pass Details

Date: 14 April 2024
Orbit: 871 x 971 km, 66.8° (Epoch: 18 May)

Event Time Altitude Azimuth Distance (km) Brightness Sun altitude
Rises 15:46:03 0° 244° (WSW) 3,549 11.7 43.4°
Reaches altitude 10° 15:49:12 10° 259° (W) 2,591 11.3 42.8°
Maximum altitude 15:53:42 22° 308° (NW) 1,876 10.2 41.9°
Drops below altitude 10° 15:58:09 10° 357° (N) 2,553 10.2 41.0°
Sets 16:01:15 0° 13° (NNE) 3,483 10.7 40.4°
